When you browse on this site, cookies collect data to enhance your experience and personalize the content and advertising you see.
Visit our Privacy Policy to learn more. By continuing to use the site, you agree to this use of cookies and data.
  • In Czech Republic
  • List of Countries
  • For 7 days
  • Water Temperature
  • Weather Map
  • Weather Widgets
  • user-avatar
    Login

    Hourly Weather Umea

    Today, 15 September, Sunday

    Time Temperature Precipitation Wind Pressure Humidity
    00:00 +6°C° 0 mm 4 mps 751 mmHg 77%
    01:00 +7°C° 0 mm 4 mps 750 mmHg 78%
    02:00 +7°C° 0.6 mm 5 mps 748 mmHg 83%
    03:00 +8°C° 0.6 mm 6 mps 747 mmHg 87%
    04:00 +8°C° 0.6 mm 6 mps 745 mmHg 92%
    05:00 +8°C° 1.9 mm 6 mps 744 mmHg 93%
    06:00 +8°C° 1.9 mm 6 mps 742 mmHg 95%
    07:00 +8°C° 1.9 mm 5 mps 741 mmHg 97%
    08:00 +8°C° 0.9 mm 5 mps 740 mmHg 96%
    09:00 +8°C° 0.9 mm 4 mps 739 mmHg 95%
    10:00 +8°C° 0.9 mm 4 mps 738 mmHg 94%
    11:00 +10°C° 0.2 mm 4 mps 738 mmHg 92%
    12:00 +9°C° 0.2 mm 5 mps 738 mmHg 91%
    13:00 +9°C° 0.2 mm 5 mps 738 mmHg 89%
    14:00 +9°C° 0.2 mm 6 mps 738 mmHg 88%
    15:00 +9°C° 0.2 mm 6 mps 738 mmHg 87%
    16:00 +8°C° 0.2 mm 6 mps 738 mmHg 86%
    17:00 +8°C° 0.1 mm 6 mps 738 mmHg 87%
    18:00 +7°C° 0.1 mm 5 mps 738 mmHg 89%
    19:00 +6°C° 0.1 mm 5 mps 738 mmHg 91%
    20:00 +6°C° 0.1 mm 5 mps 738 mmHg 92%
    21:00 +6°C° 0.1 mm 5 mps 739 mmHg 92%
    22:00 +6°C° 0.1 mm 5 mps 739 mmHg 93%
    23:00 +5°C° 0.2 mm 6 mps 739 mmHg 92%

    Tomorrow, 16 September, Monday

    Time Temperature Precipitation Wind Pressure Humidity
    00:00 +7°C° 0.2 mm 6 mps 740 mmHg 92%
    01:00 +6°C° 0.2 mm 7 mps 740 mmHg 91%
    02:00 +6°C° 0.5 mm 7 mps 741 mmHg 91%
    03:00 +5°C° 0.5 mm 7 mps 741 mmHg 91%
    04:00 +5°C° 0.5 mm 7 mps 742 mmHg 90%
    05:00 +5°C° 0.3 mm 7 mps 743 mmHg 90%
    06:00 +5°C° 0.3 mm 7 mps 743 mmHg 89%
    07:00 +4°C° 0.3 mm 7 mps 744 mmHg 89%
    08:00 +5°C° 0 mm 6 mps 744 mmHg 85%
    09:00 +5°C° 0 mm 6 mps 745 mmHg 82%
    10:00 +7°C° 0 mm 5 mps 745 mmHg 78%
    11:00 +8°C° 0 mm 5 mps 745 mmHg 70%
    12:00 +10°C° 0 mm 4 mps 746 mmHg 61%
    13:00 +11°C° 0 mm 3 mps 746 mmHg 53%
    14:00 +11°C° 0 mm 3 mps 746 mmHg 53%
    15:00 +11°C° 0 mm 3 mps 746 mmHg 52%
    16:00 +12°C° 0 mm 2 mps 746 mmHg 52%
    17:00 +9°C° 0 mm 2 mps 746 mmHg 58%
    18:00 +8°C° 0 mm 3 mps 746 mmHg 65%
    19:00 +5°C° 0 mm 3 mps 746 mmHg 71%
    20:00 +4°C° 0 mm 3 mps 746 mmHg 74%
    21:00 +4°C° 0 mm 3 mps 746 mmHg 77%
    22:00 +3°C° 0 mm 3 mps 746 mmHg 80%
    23:00 +3°C° 0 mm 3 mps 746 mmHg 81%

    Day after tomorrow, 17 September, Tuesday

    Time Temperature Precipitation Wind Pressure Humidity
    00:00 +3°C° 0 mm 4 mps 746 mmHg 83%
    01:00 +3°C° 0 mm 4 mps 746 mmHg 85%
    02:00 +3°C° 0.1 mm 4 mps 746 mmHg 86%
    03:00 +4°C° 0.1 mm 4 mps 746 mmHg 88%
    04:00 +3°C° 0.1 mm 5 mps 746 mmHg 89%
    05:00 +5°C° 0.1 mm 5 mps 746 mmHg 88%
    06:00 +4°C° 0.1 mm 6 mps 746 mmHg 86%
    07:00 +5°C° 0.1 mm 6 mps 746 mmHg 85%
    08:00 +5°C° 0.2 mm 6 mps 747 mmHg 83%
    09:00 +5°C° 0.2 mm 6 mps 747 mmHg 82%
    10:00 +6°C° 0.2 mm 7 mps 748 mmHg 81%
    11:00 +6°C° 0.3 mm 7 mps 748 mmHg 82%
    12:00 +6°C° 0.3 mm 7 mps 748 mmHg 84%
    13:00 +6°C° 0.3 mm 7 mps 749 mmHg 85%
    14:00 +5°C° 0.1 mm 6 mps 749 mmHg 84%
    15:00 +5°C° 0.1 mm 6 mps 749 mmHg 82%
    16:00 +5°C° 0.1 mm 6 mps 750 mmHg 81%
    17:00 +4°C° 0 mm 6 mps 750 mmHg 82%
    18:00 +3°C° 0 mm 6 mps 750 mmHg 83%
    19:00 +2°C° 0 mm 5 mps 751 mmHg 84%
    20:00 +2°C° 0 mm 5 mps 751 mmHg 85%
    21:00 +1°C° 0 mm 5 mps 751 mmHg 85%
    22:00 +1°C° 0 mm 5 mps 752 mmHg 86%
    23:00 +1°C° 0 mm 5 mps 752 mmHg 87%

    18 September, Wednesday

    Time Temperature Precipitation Wind Pressure Humidity
    00:00 0°C° 0 mm 5 mps 752 mmHg 87%
    01:00 0°C° 0 mm 5 mps 752 mmHg 88%
    02:00 0°C° 0 mm 4 mps 753 mmHg 89%
    03:00 -1°C° 0 mm 4 mps 753 mmHg 89%
    04:00 -1°C° 0 mm 4 mps 753 mmHg 90%
    05:00 0°C° 0 mm 4 mps 753 mmHg 86%
    06:00 0°C° 0 mm 4 mps 753 mmHg 82%
    07:00 +2°C° 0 mm 3 mps 754 mmHg 79%
    08:00 +3°C° 0 mm 3 mps 754 mmHg 75%
    09:00 +4°C° 0 mm 3 mps 754 mmHg 71%
    10:00 +7°C° 0 mm 3 mps 755 mmHg 67%
    11:00 +5°C° 0.3 mm 3 mps 755 mmHg 76%
    12:00 +4°C° 0.3 mm 3 mps 756 mmHg 85%
    13:00 +4°C° 0.3 mm 3 mps 756 mmHg 94%
    14:00 +3°C° 0.4 mm 4 mps 756 mmHg 94%
    15:00 +3°C° 0.4 mm 4 mps 756 mmHg 93%
    16:00 +3°C° 0.4 mm 4 mps 757 mmHg 93%
    17:00 +3°C° 0.1 mm 4 mps 757 mmHg 93%
    18:00 +3°C° 0.1 mm 4 mps 757 mmHg 92%
    19:00 +1°C° 0.1 mm 4 mps 758 mmHg 92%
    20:00 +1°C° 0 mm 4 mps 758 mmHg 92%
    21:00 0°C° 0 mm 4 mps 758 mmHg 92%
    22:00 0°C° 0 mm 4 mps 759 mmHg 91%
    23:00 -1°C° 0 mm 4 mps 759 mmHg 92%

    19 September, Thursday

    Time Temperature Precipitation Wind Pressure Humidity
    00:00 -1°C° 0 mm 4 mps 759 mmHg 92%
    01:00 -1°C° 0 mm 4 mps 760 mmHg 92%
    02:00 -1°C° 0 mm 4 mps 760 mmHg 91%
    03:00 -1°C° 0 mm 4 mps 760 mmHg 90%
    04:00 -1°C° 0 mm 4 mps 760 mmHg 89%
    05:00 -1°C° 0 mm 4 mps 760 mmHg 87%
    06:00 0°C° 0 mm 4 mps 761 mmHg 85%
    07:00 0°C° 0 mm 4 mps 761 mmHg 83%
    08:00 +3°C° 0 mm 4 mps 761 mmHg 75%
    09:00 +3°C° 0 mm 5 mps 761 mmHg 68%
    10:00 +6°C° 0 mm 5 mps 761 mmHg 61%
    11:00 +7°C° 0 mm 5 mps 761 mmHg 55%
    12:00 +8°C° 0 mm 5 mps 761 mmHg 50%
    13:00 +9°C° 0 mm 5 mps 761 mmHg 45%
    14:00 +8°C° 0 mm 5 mps 761 mmHg 47%
    15:00 +8°C° 0 mm 5 mps 761 mmHg 49%
    16:00 +8°C° 0 mm 4 mps 761 mmHg 51%
    17:00 +6°C° 0 mm 5 mps 761 mmHg 56%
    18:00 +5°C° 0 mm 5 mps 761 mmHg 62%
    19:00 +2°C° 0 mm 5 mps 762 mmHg 68%
    20:00 +2°C° 0 mm 5 mps 762 mmHg 69%
    21:00 +1°C° 0 mm 5 mps 762 mmHg 69%
    22:00 +1°C° 0 mm 5 mps 762 mmHg 70%
    23:00 0°C° 0 mm 4 mps 762 mmHg 72%

    20 September, Friday

    Time Temperature Precipitation Wind Pressure Humidity
    00:00 0°C° 0 mm 4 mps 762 mmHg 74%
    01:00 0°C° 0 mm 3 mps 761 mmHg 77%
    02:00 0°C° 0 mm 3 mps 761 mmHg 77%
    03:00 0°C° 0 mm 3 mps 761 mmHg 78%
    04:00 -1°C° 0 mm 2 mps 761 mmHg 79%
    05:00 +1°C° 0 mm 2 mps 760 mmHg 75%
    06:00 +2°C° 0 mm 2 mps 760 mmHg 71%
    07:00 +4°C° 0 mm 1 mps 760 mmHg 67%
    08:00 +4°C° 0 mm 2 mps 759 mmHg 67%
    09:00 +4°C° 0 mm 3 mps 758 mmHg 66%
    10:00 +5°C° 0 mm 3 mps 758 mmHg 66%
    11:00 +5°C° 0.3 mm 4 mps 757 mmHg 75%
    12:00 +5°C° 0.3 mm 5 mps 756 mmHg 85%
    13:00 +3°C° 0.3 mm 6 mps 755 mmHg 94%
    14:00 +4°C° 1 mm 6 mps 753 mmHg 94%
    15:00 +4°C° 1 mm 6 mps 752 mmHg 94%
    16:00 +5°C° 1 mm 5 mps 751 mmHg 94%
    17:00 +5°C° 0.3 mm 6 mps 750 mmHg 94%
    18:00 +7°C° 0.3 mm 6 mps 749 mmHg 93%
    19:00 +8°C° 0.3 mm 6 mps 749 mmHg 93%
    20:00 +8°C° 0 mm 6 mps 748 mmHg 91%
    21:00 +9°C° 0 mm 7 mps 748 mmHg 89%
    22:00 +10°C° 0 mm 7 mps 747 mmHg 88%
    23:00 +10°C° 0 mm 7 mps 747 mmHg 87%
    Show more